Regional Weather Roundup
Issued by NWS

Home | Current Version | Previous Version | Graphics & Text | Print | Product List | Glossary On
Versions: 1 2 3 4 5 6 7 8 9 10 11 12 13 14 15 16 17 18 19 20 21 22 23 24 25 26 27 28 29 30 31 32 33 34 35 36 37 38 39 40 41 42 43 44 45 46 47 48 49 50
000
ASUS43 KDMX 241607
RWRIA

WEATHER ROUNDUP FOR IOWA
NATIONAL WEATHER SERVICE DES MOINES IA
1100 AM CDT THU JUL 24 2014

NOTE: "FAIR" INDICATES FEW OR NO CLOUDS BELOW 12,000 FEET WITH NO
SIGNIFICANT WEATHER AND/OR OBSTRUCTIONS TO VISIBILITY.

* - THESE STATIONS ARE NOT NWS STATIONS...THUS NOT UNDER NWS
QUALITY CONTROL.  THEY ALSO DO NOT REPORT WEATHER SUCH
AS PRECIPITATION OR FOG.

IAZ001>003-012>014-020>022-031>034-043>046-241700-
   NORTHWEST IOWA

CITY           SKY/WX    TMP DP  RH WIND       PRES   REMARKS
CARROLL *      MOSUNNY   72  63  73 SW3       30.18F
CHEROKEE *     CLOUDY    70  63  78 S6G24     30.05F
DENISON *      MOSUNNY   68  63  83 SE6       30.15F
LE MARS *      SUNNY     70  61  73 S15G29    30.02F
ORANGE CITY *  SUNNY     70  61  73 E7        30.07R
SHELDON *      SUNNY     72  63  73 VRB6G13   30.09R
SIOUX CITY     CLOUDY    67  63  87 S14G23    30.05F
SPENCER        PTSUNNY   74  60  61 SE16G22   30.08F
STORM LAKE *   SUNNY     68  64  88 SE17      30.06F
$$

IAZ055>058-069>071-079>083-090>094-241700-
   SOUTHWEST IOWA

CITY           SKY/WX    TMP DP  RH WIND       PRES   REMARKS
ATLANTIC *     PTSUNNY   73  59  60 CALM      30.22R
AUDUBON *      SUNNY     73  66  78 SW3       30.22R
CLARINDA *     SUNNY     75  61  60 S8        30.18R
COUNCIL BLFS * MOSUNNY   72  63  73 SE8       30.17R
CRESTON *      SUNNY     73  61  64 S8        30.19R
HARLAN  *      SUNNY     70  63  78 CALM      30.24R
LAMONI         MOSUNNY   75  59  57 SE8       30.18R
RED OAK *      SUNNY     75  61  60 SE8       30.19R
SHENANDOAH *   SUNNY     75  61  60 SE9       30.17R
$$

IAZ047>049-059>061-072>074-084-241700-
   CENTRAL IOWA

CITY           SKY/WX    TMP DP  RH WIND       PRES   REMARKS
AMES           CLOUDY    75  61  61 VRB5      30.19R
ANKENY *       SUNNY     75  61  60 VRB3      30.18R
CHARITON *     SUNNY     75  61  60 VRB6      30.18R
DES MOINES     CLOUDY    76  61  59 VRB3      30.18R
GRINNELL*      MOSUNNY   75  59  57 SE3       30.18S
KNOXVILLE *    SUNNY     75  59  57 SE7       30.17R
MARSHALLTOWN   PTSUNNY   74  61  63 SE3       30.17R
PELLA *        PTSUNNY   77  61  57 S3        30.19R
PERRY *          N/A     73  61  64 SW5       30.20R
$$

IAZ004>006-015-016-023>025-035-036-241700-
   NORTH CENTRAL IOWA

CITY           SKY/WX    TMP DP  RH WIND       PRES   REMARKS
ALGONA *       SUNNY     73  61  64 S13       30.13F
CLARION *      SUNNY     77  61  57 SW7       30.17F
ESTHERVILLE    PTSUNNY   73  60  63 S15       30.11F
FORT DODGE *   CLOUDY    73  63  68 SW6       30.18F
MASON CITY     PTSUNNY   76  61  59 S9        30.17F
FOREST CITY *  SUNNY     77  59  53 S8        30.16F
IOWA FALLS *     N/A     75  59  57 CALM      30.19S
$$

IAZ007>011-017>019-026>030-037>042-050>054-066-241700-
   NORTHEAST IOWA

CITY           SKY/WX    TMP DP  RH WIND       PRES   REMARKS
CEDAR RAPIDS   SUNNY     71  57  61 S7        30.18R
CHARLES CITY * SUNNY     75  59  57 S5        30.18R
CLINTON *      SUNNY     72  54  53 SE5       30.22S
DECORAH *      SUNNY     72  61  68 VRB5      30.16F
DUBUQUE        SUNNY     70  55  59 SW7       30.20R
MONTICELLO *   SUNNY     72  57  60 SE7       30.18F
OELWEIN *      SUNNY     73  63  68 S8        30.18S
WATERLOO       PTSUNNY   75  60  59 S5        30.16R
$$

IAZ064-065-067-068-078-241700-
   EAST CENTRAL IOWA

CITY           SKY/WX    TMP DP  RH WIND       PRES   REMARKS
DAVENPORT      SUNNY     72  53  51 SE7       30.20R
IOWA CITY      SUNNY     71  56  58 SE7       30.19F
MT. PLEASANT * SUNNY     73  52  46 CALM      30.19S
MUSCATINE *    SUNNY     73  54  49 VRB6      30.19S
QUAD CITIES    SUNNY     73  52  47 E7        30.18R
$$

IAZ062-063-075>077-085>089-095>099-241700-
   SOUTHEAST IOWA

CITY           SKY/WX    TMP DP  RH WIND       PRES   REMARKS
BURLINGTON     SUNNY     73  54  51 E8        30.18S
FAIRFIELD *    SUNNY     72  57  60 SE7       30.19R
FORT MADISON * SUNNY     73  55  53 SE6       30.19F
KEOKUK *       SUNNY     73  55  53 SE6       30.17F
OSKALOOSA *      N/A     73  63  68 SE5       30.18R
CENTERVILLE *  SUNNY     73  63  68 E3        30.19R
OTTUMWA        MOSUNNY   74  62  66 SE5       30.17R
WASHINGTON *   SUNNY     73  57  56 SE7       30.19R
$$

ABBREVIATIONS USED IN REMARKS
   TC - TEMPERATURES IN CELSIUS
  WCI - WIND CHILL INDEX
   HX - HEAT INDEX
  VSB - VISIBILITY
$$




USA.gov is the U.S. government's official web portal to all federal, state and local government web resources and services.